When you browse on this site, cookies collect data to enhance your experience and personalize the content and advertising you see.
Visit our Privacy Policy to learn more. By continuing to use the site, you agree to this use of cookies and data.
  • In Österreich
  • Länderverzeichnis
  • Für 7 Tage
  • Wassertemperatur
  • Wetterkarte
  • News
  • Widgets
  • user-avatar
    Anmelden

    Stündliche Wetter Padilla

    Heute, 13 November, Mittwoch

    Zeit Temperatur Niederschläge Wind Luftdruck Luftfeuchtigkeit
    00:00 +20°C° 0.9 mm 0 m/S 675 mmHg 94%
    01:00 +20°C° 0.9 mm 0 m/S 674 mmHg 95%
    02:00 +20°C° 1 mm 0 m/S 674 mmHg 95%
    03:00 +20°C° 1 mm 0 m/S 674 mmHg 95%
    04:00 +20°C° 1 mm 0 m/S 674 mmHg 95%
    05:00 +20°C° 1.3 mm 0 m/S 674 mmHg 95%
    06:00 +20°C° 1.3 mm 0 m/S 675 mmHg 95%
    07:00 +20°C° 0 mm 0 m/S 676 mmHg 95%
    08:00 +23°C° 0.5 mm 1 m/S 676 mmHg 94%
    09:00 +24°C° 0.5 mm 1 m/S 677 mmHg 93%
    10:00 +24°C° 0.5 mm 1 m/S 677 mmHg 92%
    11:00 +24°C° 0.9 mm 1 m/S 676 mmHg 90%
    12:00 +24°C° 0.9 mm 1 m/S 676 mmHg 89%
    13:00 +24°C° 0.9 mm 1 m/S 675 mmHg 88%
    14:00 +24°C° 0.6 mm 1 m/S 675 mmHg 88%
    15:00 +24°C° 0.6 mm 1 m/S 674 mmHg 88%
    16:00 +22°C° 0.6 mm 0 m/S 674 mmHg 89%
    17:00 +22°C° 0.2 mm 0 m/S 674 mmHg 91%
    18:00 +21°C° 0.2 mm 0 m/S 674 mmHg 92%
    19:00 +20°C° 0.2 mm 0 m/S 675 mmHg 94%
    20:00 +20°C° 0 mm 0 m/S 675 mmHg 94%
    21:00 +20°C° 0 mm 0 m/S 676 mmHg 93%
    22:00 +20°C° 0 mm 0 m/S 676 mmHg 93%
    23:00 +20°C° 0.1 mm 0 m/S 676 mmHg 93%

    Morgen, 14 November, Donnerstag

    Zeit Temperatur Niederschläge Wind Luftdruck Luftfeuchtigkeit
    00:00 +19°C° 0.1 mm 0 m/S 676 mmHg 93%
    01:00 +19°C° 0.1 mm 0 m/S 675 mmHg 93%
    02:00 +19°C° 0.2 mm 0 m/S 675 mmHg 93%
    03:00 +19°C° 0.2 mm 0 m/S 675 mmHg 94%
    04:00 +19°C° 0.2 mm 0 m/S 675 mmHg 94%
    05:00 +20°C° 0 mm 0 m/S 675 mmHg 93%
    06:00 +20°C° 0 mm 0 m/S 676 mmHg 92%
    07:00 +20°C° 0 mm 0 m/S 676 mmHg 91%
    08:00 +22°C° 0.1 mm 0 m/S 676 mmHg 86%
    09:00 +25°C° 0.1 mm 1 m/S 677 mmHg 81%
    10:00 +27°C° 0.1 mm 1 m/S 678 mmHg 76%
    11:00 +27°C° 0.9 mm 1 m/S 677 mmHg 75%
    12:00 +28°C° 0.9 mm 1 m/S 677 mmHg 74%
    13:00 +28°C° 0.9 mm 1 m/S 676 mmHg 73%
    14:00 +27°C° 2 mm 1 m/S 675 mmHg 80%
    15:00 +25°C° 2 mm 1 m/S 675 mmHg 86%
    16:00 +24°C° 2 mm 1 m/S 674 mmHg 93%
    17:00 +23°C° 2.4 mm 1 m/S 675 mmHg 94%
    18:00 +23°C° 2.4 mm 1 m/S 675 mmHg 94%
    19:00 +20°C° 2.4 mm 0 m/S 675 mmHg 95%
    20:00 +20°C° 0.2 mm 0 m/S 676 mmHg 95%
    21:00 +20°C° 0.2 mm 0 m/S 676 mmHg 95%
    22:00 +20°C° 0.2 mm 0 m/S 677 mmHg 95%
    23:00 +20°C° 0.5 mm 0 m/S 676 mmHg 95%

    übermorgen, 15 November, Freitag

    Zeit Temperatur Niederschläge Wind Luftdruck Luftfeuchtigkeit
    00:00 +20°C° 0.5 mm 0 m/S 676 mmHg 95%
    01:00 +20°C° 0.5 mm 0 m/S 676 mmHg 96%
    02:00 +20°C° 2.3 mm 0 m/S 676 mmHg 96%
    03:00 +20°C° 2.3 mm 0 m/S 675 mmHg 97%
    04:00 +19°C° 2.3 mm 0 m/S 675 mmHg 97%
    05:00 +20°C° 1.5 mm 0 m/S 676 mmHg 97%
    06:00 +20°C° 1.5 mm 0 m/S 676 mmHg 97%
    07:00 +20°C° 1.5 mm 0 m/S 676 mmHg 97%
    08:00 +21°C° 0.3 mm 0 m/S 677 mmHg 93%
    09:00 +24°C° 0.3 mm 1 m/S 677 mmHg 90%
    10:00 +25°C° 0.3 mm 1 m/S 677 mmHg 87%
    11:00 +26°C° 0.3 mm 1 m/S 677 mmHg 81%
    12:00 +27°C° 0.3 mm 1 m/S 676 mmHg 76%
    13:00 +28°C° 0.3 mm 1 m/S 675 mmHg 70%
    14:00 +27°C° 1 mm 1 m/S 675 mmHg 76%
    15:00 +26°C° 1 mm 1 m/S 675 mmHg 81%
    16:00 +26°C° 1 mm 1 m/S 674 mmHg 87%
    17:00 +25°C° 0.7 mm 1 m/S 674 mmHg 89%
    18:00 +24°C° 0.7 mm 1 m/S 675 mmHg 91%
    19:00 +21°C° 0.7 mm 0 m/S 675 mmHg 93%
    20:00 +21°C° 0.2 mm 0 m/S 675 mmHg 94%
    21:00 +20°C° 0.2 mm 0 m/S 676 mmHg 94%
    22:00 +20°C° 0.2 mm 0 m/S 676 mmHg 94%
    23:00 +20°C° 0.3 mm 0 m/S 676 mmHg 94%

    16 November, Samstag

    Zeit Temperatur Niederschläge Wind Luftdruck Luftfeuchtigkeit
    00:00 +20°C° 0.3 mm 0 m/S 675 mmHg 95%
    01:00 +20°C° 0.3 mm 0 m/S 675 mmHg 95%
    02:00 +20°C° 0.3 mm 0 m/S 674 mmHg 95%
    03:00 +20°C° 0.3 mm 0 m/S 674 mmHg 95%
    04:00 +19°C° 0.3 mm 0 m/S 674 mmHg 95%
    05:00 +20°C° 0.1 mm 0 m/S 674 mmHg 94%
    06:00 +20°C° 0.1 mm 0 m/S 675 mmHg 93%
    07:00 +20°C° 0.1 mm 0 m/S 675 mmHg 92%
    08:00 +21°C° 0.2 mm 0 m/S 676 mmHg 89%
    09:00 +24°C° 0.2 mm 1 m/S 676 mmHg 86%
    10:00 +25°C° 0.2 mm 1 m/S 676 mmHg 83%
    11:00 +26°C° 0.9 mm 1 m/S 676 mmHg 83%
    12:00 +26°C° 0.9 mm 1 m/S 675 mmHg 83%
    13:00 +24°C° 0.9 mm 0 m/S 674 mmHg 83%
    14:00 +26°C° 1.3 mm 1 m/S 674 mmHg 85%
    15:00 +25°C° 1.3 mm 1 m/S 673 mmHg 88%
    16:00 +25°C° 1.3 mm 1 m/S 673 mmHg 90%
    17:00 +24°C° 0.5 mm 1 m/S 673 mmHg 92%
    18:00 +23°C° 0.5 mm 1 m/S 674 mmHg 93%
    19:00 +20°C° 0.5 mm 0 m/S 674 mmHg 95%
    20:00 +20°C° 0.2 mm 0 m/S 674 mmHg 95%
    21:00 +20°C° 0.2 mm 0 m/S 675 mmHg 95%
    22:00 +20°C° 0.2 mm 0 m/S 675 mmHg 94%
    23:00 +20°C° 0.1 mm 0 m/S 675 mmHg 94%

    17 November, Sonntag

    Zeit Temperatur Niederschläge Wind Luftdruck Luftfeuchtigkeit
    00:00 +19°C° 0.1 mm 0 m/S 674 mmHg 94%
    01:00 +19°C° 0.1 mm 0 m/S 674 mmHg 94%
    02:00 +19°C° 0.1 mm 0 m/S 673 mmHg 94%
    03:00 +19°C° 0.1 mm 0 m/S 673 mmHg 94%
    04:00 +19°C° 0.1 mm 0 m/S 673 mmHg 94%
    05:00 +19°C° 0.1 mm 0 m/S 674 mmHg 93%
    06:00 +19°C° 0.1 mm 0 m/S 674 mmHg 92%
    07:00 +20°C° 0.1 mm 0 m/S 675 mmHg 91%
    08:00 +21°C° 0.1 mm 0 m/S 675 mmHg 89%
    09:00 +21°C° 0.1 mm 0 m/S 675 mmHg 87%
    10:00 +24°C° 0.1 mm 1 m/S 676 mmHg 86%
    11:00 +24°C° 0.5 mm 1 m/S 675 mmHg 86%
    12:00 +25°C° 0.5 mm 1 m/S 674 mmHg 86%
    13:00 +25°C° 0.5 mm 1 m/S 674 mmHg 86%
    14:00 +25°C° 0.5 mm 1 m/S 673 mmHg 87%
    15:00 +24°C° 0.5 mm 1 m/S 673 mmHg 88%
    16:00 +22°C° 0.5 mm 0 m/S 673 mmHg 89%
    17:00 +21°C° 0.2 mm 0 m/S 673 mmHg 91%
    18:00 +20°C° 0.2 mm 0 m/S 674 mmHg 93%
    19:00 +20°C° 0.2 mm 0 m/S 674 mmHg 95%
    20:00 +20°C° 0 mm 0 m/S 674 mmHg 94%
    21:00 +19°C° 0 mm 0 m/S 675 mmHg 94%
    22:00 +19°C° 0 mm 0 m/S 675 mmHg 94%
    23:00 +19°C° 0 mm 0 m/S 675 mmHg 94%

    18 November, Montag

    Zeit Temperatur Niederschläge Wind Luftdruck Luftfeuchtigkeit
    00:00 +19°C° 0 mm 0 m/S 674 mmHg 94%
    01:00 +19°C° 0 mm 0 m/S 674 mmHg 94%
    02:00 +19°C° 0 mm 0 m/S 674 mmHg 94%
    03:00 +19°C° 0 mm 0 m/S 674 mmHg 94%
    04:00 +19°C° 0 mm 0 m/S 673 mmHg 93%
    05:00 +19°C° 0 mm 0 m/S 674 mmHg 92%
    06:00 +19°C° 0 mm 0 m/S 674 mmHg 90%
    07:00 +20°C° 0 mm 0 m/S 675 mmHg 89%
    08:00 +21°C° 0 mm 0 m/S 675 mmHg 85%
    09:00 +25°C° 0 mm 1 m/S 676 mmHg 81%
    10:00 +26°C° 0 mm 1 m/S 676 mmHg 76%
    11:00 +27°C° 0.3 mm 1 m/S 675 mmHg 73%
    12:00 +28°C° 0.3 mm 1 m/S 675 mmHg 70%
    13:00 +29°C° 0.3 mm 1 m/S 675 mmHg 67%
    14:00 +28°C° 1 mm 1 m/S 674 mmHg 72%
    15:00 +27°C° 1 mm 1 m/S 674 mmHg 78%
    16:00 +26°C° 1 mm 1 m/S 673 mmHg 83%
    17:00 +25°C° 0.9 mm 1 m/S 673 mmHg 86%
    18:00 +24°C° 0.9 mm 1 m/S 674 mmHg 89%
    19:00 +22°C° 0.9 mm 1 m/S 674 mmHg 92%
    20:00 +20°C° 0.3 mm 0 m/S 674 mmHg 92%
    21:00 +20°C° 0.3 mm 0 m/S 675 mmHg 92%
    22:00 +20°C° 0.3 mm 0 m/S 675 mmHg 92%
    23:00 +20°C° 0.2 mm 0 m/S 675 mmHg 92%
    Mehr zeigen